Time,TemperatureF,DewpointF,PressureIn,WindDirection,WindDirectionDegrees,WindSpeedMPH,WindSpeedGustMPH,Humidity,HourlyPrecipIn,Conditions,Clouds,dailyrainin,SolarRadiationWatts/m^2,SoftwareType,DateUTC
2013-03-19 00:00:00,66.2,65.3,29.85,ENE,78,2.3,2.3,97,0.00,OVC,SKC,0.00,0.0,WeatherDisplay:10.37,2013-03-19 06:00:00,
2013-03-19 00:05:00,66.2,65.3,29.85,ENE,78,3.0,3.0,97,0.00,-SN,SKC,0.00,0.0,WeatherDisplay:10.37,2013-03-19 06:05:00,
2013-03-19 00:10:00,66.2,65.3,29.85,ENE,78,3.5,3.5,97,0.00,-SN,SKC,0.00,0.0,WeatherDisplay:10.37,2013-03-19 06:10:00,
2013-03-19 00:15:00,66.3,65.4,29.85,ENE,74,4.0,4.0,97,0.00,-SN,SKC,0.00,0.0,WeatherDisplay:10.37,2013-03-19 06:15:00,
2013-03-19 00:20:00,66.3,65.4,29.85,ENE,73,3.5,3.9,97,0.00,-SN,SKC,0.00,0.0,WeatherDisplay:10.37,2013-03-19 06:20:00,
2013-03-19 00:25:00,66.3,65.4,29.85,ENE,67,4.6,4.6,97,0.00,-SN,SKC,0.00,0.0,WeatherDisplay:10.37,2013-03-19 06:25:00,
2013-03-19 00:30:00,66.2,65.3,29.85,ENE,70,5.8,5.8,97,0.00,-SN,SKC,0.00,0.0,WeatherDisplay:10.37,2013-03-19 06:30:00,
2013-03-19 00:35:00,66.2,65.3,29.85,ENE,67,5.0,5.0,97,0.00,-SN,SKC,0.00,0.0,WeatherDisplay:10.37,2013-03-19 06:35:00,
2013-03-19 00:40:00,66.3,65.4,29.85,ENE,73,4.6,4.6,97,0.00,-SN,SKC,0.00,0.0,WeatherDisplay:10.37,2013-03-19 06:40:00,
2013-03-19 00:45:00,66.6,66.0,29.85,NE,38,4.6,4.6,98,0.00,-SN,SKC,0.00,0.0,WeatherDisplay:10.37,2013-03-19 06:45:00,
2013-03-19 00:50:00,66.5,65.9,29.85,ENE,59,5.8,5.8,98,0.00,-SN,SKC,0.00,0.0,WeatherDisplay:10.37,2013-03-19 06:50:00,
2013-03-19 00:55:00,66.6,66.0,29.86,NE,42,4.6,4.6,98,0.00,-SN,SKC,0.00,0.0,WeatherDisplay:10.37,2013-03-19 06:55:00,
2013-03-19 01:00:00,66.5,65.9,29.86,NNE,27,4.6,4.6,98,0.00,-SN,SKC,0.00,0.0,WeatherDisplay:10.37,2013-03-19 07:00:00,
2013-03-19 01:05:00,66.5,65.6,29.86,NE,36,5.8,5.8,97,0.00,-SN,SKC,0.00,0.0,WeatherDisplay:10.37,2013-03-19 07:05:00,
2013-03-19 01:10:00,66.5,65.9,29.86,NE,37,4.6,4.6,98,0.00,-SN,SKC,0.00,0.0,WeatherDisplay:10.37,2013-03-19 07:10:00,
2013-03-19 01:15:00,66.6,66.0,29.86,NE,40,5.8,5.8,98,0.00,-SN,SKC,0.00,0.0,WeatherDisplay:10.37,2013-03-19 07:15:00,
2013-03-19 01:20:00,66.7,66.1,29.86,NE,37,4.6,4.6,98,0.00,-SN,SKC,0.00,0.0,WeatherDisplay:10.37,2013-03-19 07:20:00,
2013-03-19 01:25:00,66.7,66.1,29.85,NNE,32,4.6,4.6,98,0.00,-SN,SKC,0.00,0.0,WeatherDisplay:10.37,2013-03-19 07:25:00,
2013-03-19 01:30:00,66.7,66.1,29.85,NNE,33,9.2,9.2,98,0.00,-SN,SKC,0.00,0.0,WeatherDisplay:10.37,2013-03-19 07:30:00,
2013-03-19 01:35:00,66.8,66.2,29.85,NNE,28,6.9,6.9,98,0.00,-SN,SKC,0.00,0.0,WeatherDisplay:10.37,2013-03-19 07:35:00,
2013-03-19 01:40:00,67.0,66.4,29.86,NE,44,5.0,5.0,98,0.00,-SN,SKC,0.00,0.0,WeatherDisplay:10.37,2013-03-19 07:40:00,
2013-03-19 01:45:00,66.9,66.3,29.86,NNE,24,9.2,9.2,98,0.00,-SN,SKC,0.00,0.0,WeatherDisplay:10.37,2013-03-19 07:45:00,
2013-03-19 01:50:00,66.9,66.3,29.86,NE,41,8.1,8.1,98,0.00,-SN,SKC,0.00,0.0,WeatherDisplay:10.37,2013-03-19 07:50:00,
2013-03-19 01:55:00,67.0,66.4,29.85,NE,44,9.2,9.2,98,0.00,-SN,SKC,0.00,0.0,WeatherDisplay:10.37,2013-03-19 07:55:00,
2013-03-19 02:00:00,67.0,66.4,29.85,NE,41,4.6,4.6,98,0.00,-SN,SKC,0.00,0.0,WeatherDisplay:10.37,2013-03-19 08:00:00,
2013-03-19 02:05:00,67.0,66.4,29.85,NE,49,11.5,11.5,98,0.00,-RA,SKC,0.00,0.0,WeatherDisplay:10.37,2013-03-19 08:05:00,
2013-03-19 02:10:00,66.9,66.3,29.85,NE,40,5.8,5.8,98,0.00,-RA,SKC,0.00,0.0,WeatherDisplay:10.37,2013-03-19 08:10:00,
2013-03-19 02:15:00,66.9,66.3,29.85,NNE,28,4.6,4.6,98,0.00,-RA,SKC,0.00,0.0,WeatherDisplay:10.37,2013-03-19 08:15:00,
2013-03-19 02:20:00,67.0,66.4,29.85,NE,42,4.6,4.6,98,0.00,-RA,SKC,0.00,0.0,WeatherDisplay:10.37,2013-03-19 08:20:00,
2013-03-19 02:25:00,67.1,66.5,29.85,ENE,57,5.8,5.8,98,0.00,-RA,SKC,0.00,0.0,WeatherDisplay:10.37,2013-03-19 08:25:00,
2013-03-19 02:30:00,67.1,66.5,29.85,ENE,63,4.0,4.0,98,0.00,-RA,SKC,0.00,0.0,WeatherDisplay:10.37,2013-03-19 08:30:00,
2013-03-19 02:35:00,67.2,66.6,29.85,NE,53,5.8,5.8,98,0.00,-RA,SKC,0.00,0.0,WeatherDisplay:10.37,2013-03-19 08:35:00,
2013-03-19 02:40:00,67.2,66.6,29.85,ENE,71,4.6,4.6,98,0.00,-RA,SKC,0.00,0.0,WeatherDisplay:10.37,2013-03-19 08:40:00,
2013-03-19 02:45:00,67.2,66.6,29.85,ENE,57,4.6,4.6,98,0.00,-RA,SKC,0.00,0.0,WeatherDisplay:10.37,2013-03-19 08:45:00,
2013-03-19 02:50:00,67.1,66.5,29.85,NE,55,4.6,4.6,98,0.00,-RA,SKC,0.00,0.0,WeatherDisplay:10.37,2013-03-19 08:50:00,
2013-03-19 02:55:00,67.1,66.5,29.84,ENE,61,4.6,4.6,98,0.00,-RA,SKC,0.00,0.0,WeatherDisplay:10.37,2013-03-19 08:55:00,
2013-03-19 03:00:00,67.0,66.4,29.84,ENE,67,5.0,5.0,98,0.00,-RA,SKC,0.00,0.0,WeatherDisplay:10.37,2013-03-19 09:00:00,
2013-03-19 03:05:00,67.2,66.6,29.84,ENE,59,4.6,4.6,98,0.00,OVC,SKC,0.00,0.0,WeatherDisplay:10.37,2013-03-19 09:05:00,
2013-03-19 03:10:00,67.1,66.5,29.84,NE,47,3.0,3.0,98,0.00,OVC,SKC,0.00,0.0,WeatherDisplay:10.37,2013-03-19 09:10:00,
2013-03-19 03:15:00,66.9,66.0,29.84,NE,38,3.5,3.5,97,0.00,OVC,SKC,0.00,0.0,WeatherDisplay:10.37,2013-03-19 09:15:00,
2013-03-19 03:20:00,66.8,66.2,29.84,NE,46,3.5,3.5,98,0.00,OVC,SKC,0.00,0.0,WeatherDisplay:10.37,2013-03-19 09:20:00,
2013-03-19 03:25:00,66.8,66.2,29.84,NE,47,3.5,3.5,98,0.00,OVC,SKC,0.00,0.0,WeatherDisplay:10.37,2013-03-19 09:25:00,
2013-03-19 03:30:00,66.7,66.1,29.84,NNE,28,3.5,3.5,98,0.00,OVC,SKC,0.00,0.0,WeatherDisplay:10.37,2013-03-19 09:30:00,
2013-03-19 03:35:00,66.8,66.2,29.84,NNE,28,3.5,3.5,98,0.00,OVC,SKC,0.00,0.0,WeatherDisplay:10.37,2013-03-19 09:35:00,
2013-03-19 03:40:00,66.8,66.2,29.84,NE,43,2.3,2.3,98,0.00,OVC,SKC,0.00,0.0,WeatherDisplay:10.37,2013-03-19 09:40:00,
2013-03-19 03:45:00,66.8,66.2,29.84,NE,45,3.5,3.5,98,0.00,OVC,SKC,0.00,0.0,WeatherDisplay:10.37,2013-03-19 09:45:00,
2013-03-19 03:50:00,66.8,66.2,29.84,NE,34,4.6,4.6,98,0.00,OVC,SKC,0.00,0.0,WeatherDisplay:10.37,2013-03-19 09:50:00,
2013-03-19 03:55:00,66.8,66.2,29.83,NE,55,4.6,4.6,98,0.00,OVC,SKC,0.00,0.0,WeatherDisplay:10.37,2013-03-19 09:55:00,
2013-03-19 04:00:00,66.7,66.1,29.83,NE,54,5.8,5.8,98,0.00,OVC,SKC,0.00,0.0,WeatherDisplay:10.37,2013-03-19 10:00:00,
2013-03-19 04:05:00,66.4,65.5,29.83,NE,40,8.1,8.1,97,0.00,-RA,SKC,0.00,0.0,WeatherDisplay:10.37,2013-03-19 10:05:00,
2013-03-19 04:10:00,66.1,65.2,29.83,NE,37,6.9,6.9,97,0.00,-RA,SKC,0.00,0.0,WeatherDisplay:10.37,2013-03-19 10:10:00,
2013-03-19 04:15:00,65.8,64.9,29.83,NNE,22,10.4,10.4,97,0.00,-RA,SKC,0.00,0.0,WeatherDisplay:10.37,2013-03-19 10:15:00,
2013-03-19 04:20:00,65.6,64.4,29.83,NNE,23,10.4,10.4,96,0.00,-RA,SKC,0.00,0.0,WeatherDisplay:10.37,2013-03-19 10:20:00,
2013-03-19 04:25:00,65.6,64.1,29.83,NNE,18,8.0,8.0,95,0.00,-RA,SKC,0.00,0.0,WeatherDisplay:10.37,2013-03-19 10:25:00,
2013-03-19 04:30:00,65.7,63.9,29.83,North,11,11.5,11.5,94,0.00,-RA,SKC,0.00,0.0,WeatherDisplay:10.37,2013-03-19 10:30:00,
2013-03-19 04:35:00,65.7,63.3,29.83,NE,46,12.7,12.7,92,0.00,-RA,SKC,0.00,0.0,WeatherDisplay:10.37,2013-03-19 10:35:00,
2013-03-19 04:40:00,65.8,63.1,29.84,NE,44,11.5,11.5,91,0.00,-RA,SKC,0.00,0.0,WeatherDisplay:10.37,2013-03-19 10:40:00,
2013-03-19 04:45:00,65.8,62.8,29.84,NE,43,6.9,6.9,90,0.00,-RA,SKC,0.00,0.0,WeatherDisplay:10.37,2013-03-19 10:45:00,
2013-03-19 04:50:00,65.8,62.5,29.84,NNE,23,6.9,6.9,89,0.00,-RA,SKC,0.00,0.0,WeatherDisplay:10.37,2013-03-19 10:50:00,
2013-03-19 04:55:00,65.9,61.9,29.84,NE,38,6.9,6.9,87,0.00,-RA,SKC,0.00,0.0,WeatherDisplay:10.37,2013-03-19 10:55:00,
2013-03-19 05:00:00,66.0,62.0,29.84,NNE,22,5.8,5.8,87,0.00,-RA,SKC,0.00,0.0,WeatherDisplay:10.37,2013-03-19 11:00:00,
2013-03-19 05:05:00,66.0,61.7,29.84,NNE,24,9.2,9.2,86,0.00,OVC,SKC,0.00,0.0,WeatherDisplay:10.37,2013-03-19 11:05:00,
2013-03-19 05:10:00,65.9,61.6,29.84,ENE,64,5.8,5.8,86,0.00,OVC,SKC,0.00,0.0,WeatherDisplay:10.37,2013-03-19 11:10:00,
2013-03-19 05:15:00,65.8,61.5,29.84,NE,34,6.9,6.9,86,0.00,OVC,SKC,0.00,0.0,WeatherDisplay:10.37,2013-03-19 11:15:00,
2013-03-19 05:20:00,65.8,61.5,29.84,NE,36,5.8,5.8,86,0.00,OVC,SKC,0.00,0.0,WeatherDisplay:10.37,2013-03-19 11:20:00,
2013-03-19 05:25:00,65.8,61.8,29.85,NE,50,5.8,5.8,87,0.00,OVC,SKC,0.00,0.0,WeatherDisplay:10.37,2013-03-19 11:25:00,
2013-03-19 05:30:00,65.7,61.7,29.85,NE,40,6.9,6.9,87,0.00,OVC,SKC,0.00,0.0,WeatherDisplay:10.37,2013-03-19 11:30:00,
2013-03-19 05:35:00,65.7,62.0,29.85,NE,46,5.0,5.0,88,0.00,OVC,SKC,0.00,0.0,WeatherDisplay:10.37,2013-03-19 11:35:00,
2013-03-19 05:40:00,65.7,62.0,29.85,NE,53,5.8,5.8,88,0.00,OVC,SKC,0.00,0.0,WeatherDisplay:10.37,2013-03-19 11:40:00,
2013-03-19 05:45:00,65.8,62.5,29.85,ENE,58,3.5,3.8,89,0.00,OVC,SKC,0.00,0.0,WeatherDisplay:10.37,2013-03-19 11:45:00,
2013-03-19 05:50:00,65.8,62.5,29.85,ENE,59,5.8,5.8,89,0.00,OVC,SKC,0.00,0.0,WeatherDisplay:10.37,2013-03-19 11:50:00,
2013-03-19 05:55:00,66.1,63.1,29.86,ENE,57,6.9,6.9,90,0.00,OVC,SKC,0.00,0.0,WeatherDisplay:10.37,2013-03-19 11:55:00,
2013-03-19 06:00:00,66.7,63.7,29.86,ENE,73,9.0,9.0,90,0.00,OVC,SKC,0.00,0.0,WeatherDisplay:10.37,2013-03-19 12:00:00,
2013-03-19 06:05:00,67.1,64.1,29.86,ENE,68,9.2,9.2,90,0.00,-RA,SKC,0.00,0.0,WeatherDisplay:10.37,2013-03-19 12:05:00,
2013-03-19 06:10:00,67.3,63.9,29.87,NE,53,6.9,7.0,89,0.00,-RA,SKC,0.00,0.0,WeatherDisplay:10.37,2013-03-19 12:10:00,
2013-03-19 06:15:00,67.4,64.0,29.87,NE,37,6.9,6.9,89,0.00,-RA,SKC,0.00,0.0,WeatherDisplay:10.37,2013-03-19 12:15:00,
2013-03-19 06:20:00,67.4,64.4,29.87,NE,56,6.9,6.9,90,0.00,-RA,SKC,0.00,0.0,WeatherDisplay:10.37,2013-03-19 12:20:00,
2013-03-19 06:25:00,67.2,64.2,29.87,ENE,77,9.2,9.2,90,0.00,-RA,SKC,0.00,0.0,WeatherDisplay:10.37,2013-03-19 12:25:00,
2013-03-19 06:30:00,67.4,64.4,29.87,ENE,77,10.0,10.0,90,0.00,-RA,SKC,0.00,0.0,WeatherDisplay:10.37,2013-03-19 12:30:00,
2013-03-19 06:35:00,67.4,64.4,29.87,NE,53,6.9,6.9,90,0.00,-RA,SKC,0.00,5.0,WeatherDisplay:10.37,2013-03-19 12:35:00,
2013-03-19 06:40:00,67.5,64.8,29.88,ENE,71,6.9,6.9,91,0.00,-RA,SKC,0.00,9.0,WeatherDisplay:10.37,2013-03-19 12:40:00,
2013-03-19 06:45:00,67.5,64.8,29.88,ENE,72,10.4,10.4,91,0.00,-RA,SKC,0.00,14.0,WeatherDisplay:10.37,2013-03-19 12:45:00,
2013-03-19 06:50:00,67.4,64.7,29.88,ENE,72,10.4,10.4,91,0.00,-RA,SKC,0.00,21.0,WeatherDisplay:10.37,2013-03-19 12:50:00,
2013-03-19 06:55:00,67.3,64.6,29.88,East,90,5.8,5.8,91,0.00,-RA,SKC,0.00,30.0,WeatherDisplay:10.37,2013-03-19 12:55:00,
2013-03-19 07:00:00,67.2,64.5,29.88,East,96,10.4,10.4,91,0.00,-RA,SKC,0.00,40.0,WeatherDisplay:10.37,2013-03-19 13:00:00,
2013-03-19 07:05:00,67.2,64.8,29.88,East,90,6.9,6.9,92,0.00,-RA,SKC,0.00,40.0,WeatherDisplay:10.37,2013-03-19 13:05:00,
2013-03-19 07:10:00,67.1,64.7,29.90,East,101,5.0,5.0,92,0.00,-RA,SKC,0.00,47.0,WeatherDisplay:10.37,2013-03-19 13:10:00,
2013-03-19 07:15:00,67.1,64.7,29.90,East,86,4.6,4.6,92,0.00,-RA,SKC,0.00,53.0,WeatherDisplay:10.37,2013-03-19 13:15:00,
2013-03-19 07:20:00,67.2,64.8,29.90,ENE,59,3.5,3.5,92,0.00,-RA,SKC,0.00,56.0,WeatherDisplay:10.37,2013-03-19 13:20:00,
2013-03-19 07:25:00,67.2,65.1,29.90,ENE,74,4.6,4.6,93,0.00,-RA,SKC,0.00,69.0,WeatherDisplay:10.37,2013-03-19 13:25:00,
2013-03-19 07:30:00,67.4,65.3,29.90,East,86,4.6,4.6,93,0.00,-RA,SKC,0.00,60.0,WeatherDisplay:10.37,2013-03-19 13:30:00,
2013-03-19 07:35:00,67.4,65.3,29.90,East,90,5.8,5.8,93,0.00,-RA,SKC,0.00,69.0,WeatherDisplay:10.37,2013-03-19 13:35:00,
2013-03-19 07:40:00,67.3,65.2,29.90,NE,53,11.5,11.5,93,0.00,-RA,SKC,0.00,70.0,WeatherDisplay:10.37,2013-03-19 13:40:00,
2013-03-19 07:45:00,67.2,65.1,29.90,East,98,11.5,11.5,93,0.00,-RA,SKC,0.00,76.0,WeatherDisplay:10.37,2013-03-19 13:45:00,
2013-03-19 07:50:00,67.1,65.0,29.90,East,80,11.5,11.5,93,0.00,-RA,SKC,0.00,70.0,WeatherDisplay:10.37,2013-03-19 13:50:00,
2013-03-19 07:55:00,67.1,65.0,29.91,East,90,10.4,10.4,93,0.00,-RA,SKC,0.00,65.0,WeatherDisplay:10.37,2013-03-19 13:55:00,
2013-03-19 08:00:00,67.0,65.2,29.91,East,95,10.4,10.4,94,0.00,-RA,SKC,0.00,74.0,WeatherDisplay:10.37,2013-03-19 14:00:00,
2013-03-19 08:05:00,66.9,65.1,29.91,East,87,6.9,6.9,94,0.00,-SN,SKC,0.00,67.0,WeatherDisplay:10.37,2013-03-19 14:05:00,
2013-03-19 08:10:00,66.9,65.1,29.92,East,96,11.5,11.5,94,0.00,-SN,SKC,0.00,83.0,WeatherDisplay:10.37,2013-03-19 14:10:00,
2013-03-19 08:15:00,66.8,65.0,29.92,ESE,103,11.5,11.5,94,0.00,-SN,SKC,0.00,91.0,WeatherDisplay:10.37,2013-03-19 14:15:00,
2013-03-19 08:20:00,66.9,65.1,29.92,East,86,11.0,11.0,94,0.00,-SN,SKC,0.00,83.0,WeatherDisplay:10.37,2013-03-19 14:20:00,
2013-03-19 08:25:00,66.8,65.0,29.93,East,89,11.0,11.0,94,0.00,-SN,SKC,0.00,93.0,WeatherDisplay:10.37,2013-03-19 14:25:00,
2013-03-19 08:30:00,66.7,65.2,29.93,ESE,105,10.0,10.0,95,0.00,-SN,SKC,0.00,111.0,WeatherDisplay:10.37,2013-03-19 14:30:00,
2013-03-19 08:35:00,66.7,65.2,29.93,East,84,9.2,9.2,95,0.00,-SN,SKC,0.00,109.0,WeatherDisplay:10.37,2013-03-19 14:35:00,
2013-03-19 08:40:00,66.6,65.1,29.93,East,96,9.2,9.2,95,0.00,-SN,SKC,0.00,111.0,WeatherDisplay:10.37,2013-03-19 14:40:00,
2013-03-19 08:46:00,66.5,65.0,29.93,East,89,6.0,6.0,95,0.00,-SN,SKC,0.00,111.0,WeatherDisplay:10.37,2013-03-19 14:46:00,
2013-03-19 08:51:00,66.5,65.3,29.93,East,92,8.1,8.1,96,0.00,CLR,SKC,0.00,84.0,WeatherDisplay:10.37,2013-03-19 14:51:00,
2013-03-19 08:56:00,66.5,65.3,29.95,East,84,8.1,8.1,96,0.00,CLR,SKC,0.00,77.0,WeatherDisplay:10.37,2013-03-19 14:56:00,
2013-03-19 09:01:00,66.4,65.2,29.95,ESE,103,10.4,10.4,96,0.00,CLR,SKC,0.00,67.0,WeatherDisplay:10.37,2013-03-19 15:01:00,
2013-03-19 09:06:00,66.5,65.3,29.95,SE,139,9.2,9.2,96,0.00,CLR,SKC,0.00,70.0,WeatherDisplay:10.37,2013-03-19 15:06:00,
2013-03-19 09:11:00,66.5,65.3,29.95,East,98,6.9,6.9,96,0.00,CLR,SKC,0.00,105.0,WeatherDisplay:10.37,2013-03-19 15:11:00,
2013-03-19 09:16:00,66.4,65.2,29.95,East,99,10.4,10.4,96,0.00,CLR,SKC,0.00,116.0,WeatherDisplay:10.37,2013-03-19 15:16:00,
2013-03-19 09:21:00,66.5,65.3,29.95,ESE,117,5.8,5.8,96,0.00,CLR,SKC,0.00,123.0,WeatherDisplay:10.37,2013-03-19 15:21:00,
2013-03-19 09:26:00,66.5,65.3,29.95,ESE,107,5.8,5.8,96,0.00,CLR,SKC,0.00,153.0,WeatherDisplay:10.37,2013-03-19 15:26:00,
2013-03-19 09:31:00,66.5,65.3,29.95,East,82,5.8,5.8,96,0.00,CLR,SKC,0.00,151.0,WeatherDisplay:10.37,2013-03-19 15:31:00,
2013-03-19 09:36:00,66.5,65.3,29.95,East,96,5.0,5.0,96,0.00,CLR,SKC,0.00,158.0,WeatherDisplay:10.37,2013-03-19 15:36:00,
2013-03-19 09:41:00,66.5,65.3,29.95,SE,135,5.8,5.8,96,0.00,CLR,SKC,0.00,181.0,WeatherDisplay:10.37,2013-03-19 15:41:00,
2013-03-19 09:46:00,66.5,65.3,29.95,ESE,123,6.9,6.9,96,0.00,CLR,SKC,0.00,181.0,WeatherDisplay:10.37,2013-03-19 15:46:00,
2013-03-19 09:51:00,66.7,65.5,29.95,East,94,6.0,6.0,96,0.00,CLR,SKC,0.00,183.0,WeatherDisplay:10.37,2013-03-19 15:51:00,
2013-03-19 09:56:00,66.7,65.5,29.95,East,86,6.0,6.0,96,0.00,CLR,SKC,0.00,227.0,WeatherDisplay:10.37,2013-03-19 15:56:00,
2013-03-19 10:01:00,66.9,65.7,29.95,ENE,67,4.0,4.0,96,0.00,CLR,SKC,0.00,271.0,WeatherDisplay:10.37,2013-03-19 16:01:00,
2013-03-19 10:06:00,67.1,65.9,29.95,ENE,73,6.9,6.9,96,0.00,CLR,SKC,0.00,401.0,WeatherDisplay:10.37,2013-03-19 16:06:00,
2013-03-19 10:11:00,67.2,66.0,29.94,ENE,69,4.6,4.6,96,0.00,CLR,SKC,0.00,357.0,WeatherDisplay:10.37,2013-03-19 16:11:00,
2013-03-19 10:16:00,67.5,66.3,29.94,East,80,6.9,6.9,96,0.00,CLR,SKC,0.00,396.0,WeatherDisplay:10.37,2013-03-19 16:16:00,
2013-03-19 10:21:00,67.7,66.5,29.94,ENE,78,6.0,6.0,96,0.00,CLR,SKC,0.00,371.0,WeatherDisplay:10.37,2013-03-19 16:21:00,
2013-03-19 10:26:00,68.0,66.8,29.93,East,101,9.2,9.2,96,0.00,CLR,SKC,0.00,566.0,WeatherDisplay:10.37,2013-03-19 16:26:00,
2013-03-19 10:31:00,68.3,67.1,29.93,East,91,10.4,10.4,96,0.00,CLR,SKC,0.00,543.0,WeatherDisplay:10.37,2013-03-19 16:31:00,
2013-03-19 10:36:00,68.5,67.0,29.93,East,98,6.9,6.9,95,0.00,CLR,SKC,0.00,673.0,WeatherDisplay:10.37,2013-03-19 16:36:00,
2013-03-19 10:41:00,69.0,67.5,29.93,East,98,9.2,9.2,95,0.00,CLR,SKC,0.00,761.0,WeatherDisplay:10.37,2013-03-19 16:41:00,
2013-03-19 10:46:00,69.4,67.6,29.93,ESE,102,10.4,10.4,94,0.00,CLR,SKC,0.00,724.0,WeatherDisplay:10.37,2013-03-19 16:46:00,
2013-03-19 10:51:00,69.9,67.8,29.93,ENE,78,9.2,9.2,93,0.00,CLR,SKC,0.00,693.0,WeatherDisplay:10.37,2013-03-19 16:51:00,
2013-03-19 10:56:00,70.3,67.9,29.93,East,94,11.5,11.5,92,0.00,CLR,SKC,0.00,677.0,WeatherDisplay:10.37,2013-03-19 16:56:00,
2013-03-19 11:01:00,70.4,68.0,29.93,SE,140,10.4,10.4,92,0.00,CLR,SKC,0.00,499.0,WeatherDisplay:10.37,2013-03-19 17:01:00,
2013-03-19 11:06:00,70.4,67.6,29.93,East,91,11.5,11.5,91,0.00,CLR,SKC,0.00,552.0,WeatherDisplay:10.37,2013-03-19 17:06:00,
2013-03-19 11:11:00,70.7,67.6,29.93,East,86,10.4,10.4,90,0.00,CLR,SKC,0.00,814.0,WeatherDisplay:10.37,2013-03-19 17:11:00,
2013-03-19 11:16:00,71.0,67.9,29.93,ENE,69,8.1,8.1,90,0.00,CLR,SKC,0.00,788.0,WeatherDisplay:10.37,2013-03-19 17:16:00,
2013-03-19 11:21:00,71.3,67.9,29.93,East,94,8.1,8.1,89,0.00,CLR,SKC,0.00,812.0,WeatherDisplay:10.37,2013-03-19 17:21:00,
2013-03-19 11:26:00,71.5,67.8,29.93,ESE,109,10.4,10.4,88,0.00,CLR,SKC,0.00,809.0,WeatherDisplay:10.37,2013-03-19 17:26:00,
2013-03-19 11:31:00,71.5,67.4,29.93,East,97,12.7,12.7,87,0.00,CLR,SKC,0.00,817.0,WeatherDisplay:10.37,2013-03-19 17:31:00,
2013-03-19 11:36:00,71.5,67.4,29.93,East,96,9.2,9.2,87,0.00,CLR,SKC,0.00,826.0,WeatherDisplay:10.37,2013-03-19 17:36:00,
2013-03-19 11:41:00,71.8,67.7,29.93,East,88,10.4,10.4,87,0.00,CLR,SKC,0.00,821.0,WeatherDisplay:10.37,2013-03-19 17:41:00,
2013-03-19 11:46:00,72.1,67.7,29.93,ESE,113,11.5,11.5,86,0.00,CLR,SKC,0.00,838.0,WeatherDisplay:10.37,2013-03-19 17:46:00,
2013-03-19 11:51:00,72.1,67.7,29.93,East,92,12.7,12.7,86,0.00,CLR,SKC,0.00,837.0,WeatherDisplay:10.37,2013-03-19 17:51:00,
2013-03-19 11:56:00,72.2,67.4,29.92,East,80,10.4,10.4,85,0.00,CLR,SKC,0.00,837.0,WeatherDisplay:10.37,2013-03-19 17:56:00,
2013-03-19 12:01:00,72.2,67.4,29.92,East,84,6.9,6.9,85,0.00,CLR,SKC,0.00,895.0,WeatherDisplay:10.37,2013-03-19 18:01:00,
2013-03-19 12:06:00,72.2,67.4,29.92,ESE,111,11.5,11.5,85,0.00,CLR,SKC,0.00,904.0,WeatherDisplay:10.37,2013-03-19 18:06:00,
2013-03-19 12:11:00,72.0,67.2,29.91,ESE,108,11.5,11.5,85,0.00,CLR,SKC,0.00,865.0,WeatherDisplay:10.37,2013-03-19 18:11:00,
2013-03-19 12:16:00,72.0,67.2,29.91,SE,136,9.2,9.2,85,0.00,CLR,SKC,0.00,847.0,WeatherDisplay:10.37,2013-03-19 18:16:00,
2013-03-19 12:21:00,72.2,67.4,29.91,SSE,155,9.2,9.2,85,0.00,CLR,SKC,0.00,840.0,WeatherDisplay:10.37,2013-03-19 18:21:00,
2013-03-19 12:26:00,72.4,67.3,29.90,SE,138,13.0,13.0,84,0.00,CLR,SKC,0.00,849.0,WeatherDisplay:10.37,2013-03-19 18:26:00,
2013-03-19 12:31:00,72.4,67.3,29.90,SE,145,12.7,12.7,84,0.00,CLR,SKC,0.00,847.0,WeatherDisplay:10.37,2013-03-19 18:31:00,
2013-03-19 12:36:00,72.6,67.1,29.90,East,84,10.4,10.4,83,0.00,CLR,SKC,0.00,846.0,WeatherDisplay:10.37,2013-03-19 18:36:00,
2013-03-19 12:41:00,72.4,67.3,29.90,ENE,71,11.5,11.5,84,0.00,CLR,SKC,0.00,844.0,WeatherDisplay:10.37,2013-03-19 18:41:00,
2013-03-19 12:46:00,72.2,67.1,29.90,East,92,9.2,9.2,84,0.00,CLR,SKC,0.00,842.0,WeatherDisplay:10.37,2013-03-19 18:46:00,
2013-03-19 12:51:00,72.0,67.2,29.90,ESE,107,9.2,9.2,85,0.00,CLR,SKC,0.00,838.0,WeatherDisplay:10.37,2013-03-19 18:51:00,
2013-03-19 12:56:00,71.9,67.1,29.89,East,90,10.4,10.4,85,0.00,CLR,SKC,0.00,830.0,WeatherDisplay:10.37,2013-03-19 18:56:00,
2013-03-19 13:01:00,71.8,67.4,29.89,East,90,13.8,13.8,86,0.00,CLR,SKC,0.00,835.0,WeatherDisplay:10.37,2013-03-19 19:01:00,
2013-03-19 13:06:00,72.0,67.2,29.89,ESE,113,11.5,11.5,85,0.00,CLR,SKC,0.00,831.0,WeatherDisplay:10.37,2013-03-19 19:06:00,
2013-03-19 13:12:00,71.8,67.4,29.88,ESE,107,13.8,13.8,86,0.00,CLR,SKC,0.00,837.0,WeatherDisplay:10.37,2013-03-19 19:12:00,
2013-03-19 13:17:00,72.0,67.6,29.88,East,88,9.2,9.2,86,0.00,CLR,SKC,0.00,747.0,WeatherDisplay:10.37,2013-03-19 19:17:00,
2013-03-19 13:22:00,72.0,67.6,29.88,ESE,105,10.4,10.4,86,0.00,CLR,SKC,0.00,740.0,WeatherDisplay:10.37,2013-03-19 19:22:00,
2013-03-19 13:27:00,71.7,67.6,29.88,East,90,9.2,9.2,87,0.00,CLR,SKC,0.00,770.0,WeatherDisplay:10.37,2013-03-19 19:27:00,
2013-03-19 13:32:00,71.8,67.7,29.88,East,85,11.5,11.5,87,0.00,CLR,SKC,0.00,775.0,WeatherDisplay:10.37,2013-03-19 19:32:00,
2013-03-19 13:37:00,71.8,67.7,29.88,East,97,11.5,11.5,87,0.00,CLR,SKC,0.00,570.0,WeatherDisplay:10.37,2013-03-19 19:37:00,
2013-03-19 13:42:00,71.9,67.8,29.87,East,80,5.8,5.8,87,0.00,CLR,SKC,0.00,415.0,WeatherDisplay:10.37,2013-03-19 19:42:00,
2013-03-19 13:47:00,71.8,67.7,29.87,East,90,9.2,9.2,87,0.00,CLR,SKC,0.00,339.0,WeatherDisplay:10.37,2013-03-19 19:47:00,
2013-03-19 13:52:00,71.7,67.6,29.87,East,96,10.4,10.4,87,0.00,CLR,SKC,0.00,338.0,WeatherDisplay:10.37,2013-03-19 19:52:00,
2013-03-19 13:57:00,71.1,67.4,29.86,East,90,12.0,12.0,88,0.00,CLR,SKC,0.00,336.0,WeatherDisplay:10.37,2013-03-19 19:57:00,
2013-03-19 14:02:00,70.9,67.5,29.86,East,90,10.4,10.4,89,0.00,CLR,SKC,0.00,373.0,WeatherDisplay:10.37,2013-03-19 20:02:00,
2013-03-19 14:07:00,70.9,67.5,29.86,East,86,11.5,11.5,89,0.00,CLR,SKC,0.00,415.0,WeatherDisplay:10.37,2013-03-19 20:07:00,
2013-03-19 14:12:00,71.0,67.6,29.85,ENE,77,12.7,12.7,89,0.00,CLR,SKC,0.00,522.0,WeatherDisplay:10.37,2013-03-19 20:12:00,
2013-03-19 14:17:00,70.9,67.5,29.85,East,94,11.5,11.5,89,0.00,CLR,SKC,0.00,436.0,WeatherDisplay:10.37,2013-03-19 20:17:00,
2013-03-19 14:22:00,71.0,67.6,29.85,ESE,102,11.0,11.0,89,0.00,CLR,SKC,0.00,492.0,WeatherDisplay:10.37,2013-03-19 20:22:00,
2013-03-19 14:27:00,70.8,67.7,29.84,East,88,11.5,11.5,90,0.00,CLR,SKC,0.00,519.0,WeatherDisplay:10.37,2013-03-19 20:27:00,
2013-03-19 14:32:00,70.8,67.7,29.84,East,100,11.5,11.5,90,0.00,CLR,SKC,0.00,480.0,WeatherDisplay:10.37,2013-03-19 20:32:00,
2013-03-19 14:38:00,71.1,67.7,29.84,East,101,17.3,17.3,89,0.00,CLR,SKC,0.00,501.0,WeatherDisplay:10.37,2013-03-19 20:38:00,
2013-03-19 14:43:00,70.9,67.5,29.83,East,100,15.0,15.0,89,0.00,CLR,SKC,0.00,406.0,WeatherDisplay:10.37,2013-03-19 20:43:00,
2013-03-19 14:48:00,70.5,67.4,29.83,East,96,16.1,16.1,90,0.00,CLR,SKC,0.00,422.0,WeatherDisplay:10.37,2013-03-19 20:48:00,
2013-03-19 14:53:00,70.4,67.3,29.83,East,90,12.7,12.7,90,0.00,CLR,SKC,0.00,415.0,WeatherDisplay:10.37,2013-03-19 20:53:00,
2013-03-19 14:58:00,70.6,67.5,29.82,ENE,70,12.7,12.7,90,0.00,CLR,SKC,0.00,445.0,WeatherDisplay:10.37,2013-03-19 20:58:00,
2013-03-19 15:03:00,70.7,67.3,29.82,ESE,107,16.1,16.1,89,0.00,CLR,SKC,0.00,345.0,WeatherDisplay:10.37,2013-03-19 21:03:00,
2013-03-19 15:08:00,70.5,67.1,29.82,ENE,66,13.8,13.8,89,0.00,CLR,SKC,0.00,445.0,WeatherDisplay:10.37,2013-03-19 21:08:00,
2013-03-19 15:13:00,70.6,67.5,29.82,East,91,11.5,11.5,90,0.00,CLR,SKC,0.00,406.0,WeatherDisplay:10.37,2013-03-19 21:13:00,
2013-03-19 15:18:00,70.7,67.3,29.82,ENE,77,13.8,13.8,89,0.00,CLR,SKC,0.00,343.0,WeatherDisplay:10.37,2013-03-19 21:18:00,
2013-03-19 15:23:00,70.5,67.4,29.82,East,84,13.0,13.0,90,0.00,CLR,SKC,0.00,454.0,WeatherDisplay:10.37,2013-03-19 21:23:00,
2013-03-19 15:28:00,70.6,67.5,29.81,ENE,70,12.0,12.0,90,0.00,CLR,SKC,0.00,441.0,WeatherDisplay:10.37,2013-03-19 21:28:00,
2013-03-19 15:33:00,70.3,67.2,29.81,East,94,12.7,12.7,90,0.00,CLR,SKC,0.00,292.0,WeatherDisplay:10.37,2013-03-19 21:33:00,
2013-03-19 15:38:00,70.5,67.4,29.81,East,84,12.7,12.7,90,0.00,CLR,SKC,0.00,626.0,WeatherDisplay:10.37,2013-03-19 21:38:00,
2013-03-19 15:43:00,70.5,67.4,29.81,ENE,76,12.7,12.7,90,0.00,CLR,SKC,0.00,339.0,WeatherDisplay:10.37,2013-03-19 21:43:00,
2013-03-19 15:48:00,70.3,66.9,29.81,ENE,76,12.7,12.7,89,0.00,CLR,SKC,0.00,281.0,WeatherDisplay:10.37,2013-03-19 21:48:00,
2013-03-19 15:53:00,70.3,67.2,29.81,ENE,57,11.5,11.5,90,0.00,CLR,SKC,0.00,172.0,WeatherDisplay:10.37,2013-03-19 21:53:00,
2013-03-19 15:58:00,70.2,67.1,29.81,East,86,11.5,11.5,90,0.00,CLR,SKC,0.00,185.0,WeatherDisplay:10.37,2013-03-19 21:58:00,
2013-03-19 16:03:00,70.0,67.3,29.81,ESE,104,12.7,12.7,91,0.00,CLR,SKC,0.00,308.0,WeatherDisplay:10.37,2013-03-19 22:03:00,
2013-03-19 16:08:00,70.1,67.3,29.81,ENE,74,12.7,12.7,91,0.00,CLR,SKC,0.00,367.0,WeatherDisplay:10.37,2013-03-19 22:08:00,
2013-03-19 16:13:00,70.1,67.3,29.80,East,80,12.7,12.7,91,0.00,CLR,SKC,0.00,380.0,WeatherDisplay:10.37,2013-03-19 22:13:00,
2013-03-19 16:18:00,70.0,67.3,29.80,ENE,71,11.5,11.5,91,0.00,CLR,SKC,0.00,264.0,WeatherDisplay:10.37,2013-03-19 22:18:00,
2013-03-19 16:23:00,70.0,67.3,29.80,ENE,68,11.5,11.5,91,0.00,CLR,SKC,0.00,325.0,WeatherDisplay:10.37,2013-03-19 22:23:00,
2013-03-19 16:28:00,69.9,67.2,29.79,East,81,11.5,11.5,91,0.00,CLR,SKC,0.00,204.0,WeatherDisplay:10.37,2013-03-19 22:28:00,
2013-03-19 16:33:00,69.7,67.0,29.79,East,82,12.7,12.7,91,0.00,CLR,SKC,0.00,111.0,WeatherDisplay:10.37,2013-03-19 22:33:00,
2013-03-19 16:38:00,69.8,67.4,29.79,ENE,71,11.5,11.5,92,0.00,CLR,SKC,0.00,146.0,WeatherDisplay:10.37,2013-03-19 22:38:00,
2013-03-19 16:43:00,69.8,67.1,29.80,ENE,64,12.7,12.7,91,0.00,CLR,SKC,0.00,174.0,WeatherDisplay:10.37,2013-03-19 22:43:00,
2013-03-19 16:48:00,69.8,67.4,29.80,ENE,72,15.0,15.0,92,0.00,CLR,SKC,0.00,105.0,WeatherDisplay:10.37,2013-03-19 22:48:00,
2013-03-19 16:53:00,69.8,67.4,29.80,East,86,12.7,12.7,92,0.00,CLR,SKC,0.00,120.0,WeatherDisplay:10.37,2013-03-19 22:53:00,
2013-03-19 16:58:00,70.0,67.6,29.80,ENE,78,12.0,12.0,92,0.00,CLR,SKC,0.00,120.0,WeatherDisplay:10.37,2013-03-19 22:58:00,
2013-03-19 17:03:00,69.9,67.5,29.80,NE,53,11.5,11.5,92,0.00,CLR,SKC,0.00,113.0,WeatherDisplay:10.37,2013-03-19 23:03:00,
2013-03-19 17:08:00,69.9,67.5,29.80,ENE,61,11.5,11.5,92,0.00,CLR,SKC,0.00,90.0,WeatherDisplay:10.37,2013-03-19 23:08:00,
2013-03-19 17:13:00,69.6,67.2,29.81,ENE,71,12.7,12.7,92,0.00,CLR,SKC,0.00,63.0,WeatherDisplay:10.37,2013-03-19 23:13:00,
2013-03-19 17:18:00,69.6,67.2,29.81,ENE,72,12.7,12.7,92,0.00,CLR,SKC,0.00,83.0,WeatherDisplay:10.37,2013-03-19 23:18:00,
2013-03-19 17:23:00,69.6,67.5,29.81,ENE,72,11.5,11.5,93,0.00,CLR,SKC,0.00,84.0,WeatherDisplay:10.37,2013-03-19 23:23:00,
2013-03-19 17:28:00,69.6,67.2,29.80,East,86,11.5,11.5,92,0.00,CLR,SKC,0.00,88.0,WeatherDisplay:10.37,2013-03-19 23:28:00,
2013-03-19 17:33:00,69.5,67.4,29.80,ENE,62,13.8,13.8,93,0.00,CLR,SKC,0.00,65.0,WeatherDisplay:10.37,2013-03-19 23:33:00,
2013-03-19 17:38:00,69.3,67.2,29.80,ENE,75,16.1,16.1,93,0.00,CLR,SKC,0.00,74.0,WeatherDisplay:10.37,2013-03-19 23:38:00,
2013-03-19 17:43:00,69.3,67.2,29.80,ENE,77,16.1,16.1,93,0.00,CLR,SKC,0.00,60.0,WeatherDisplay:10.37,2013-03-19 23:43:00,
2013-03-19 17:48:00,69.3,67.2,29.80,East,80,15.0,15.0,93,0.00,CLR,SKC,0.00,53.0,WeatherDisplay:10.37,2013-03-19 23:48:00,
2013-03-19 17:53:00,69.4,67.3,29.80,ENE,68,14.0,14.0,93,0.00,CLR,SKC,0.00,49.0,WeatherDisplay:10.37,2013-03-19 23:53:00,
2013-03-19 17:58:00,69.3,67.2,29.80,ENE,61,12.7,12.7,93,0.00,CLR,SKC,0.00,39.0,WeatherDisplay:10.37,2013-03-19 23:58:00,
2013-03-19 18:03:00,69.4,67.3,29.80,ENE,77,11.5,11.5,93,0.00,CLR,SKC,0.00,32.0,WeatherDisplay:10.37,2013-03-20 00:03:00,
2013-03-19 18:08:00,69.2,67.1,29.80,ENE,66,15.0,15.0,93,0.00,CLR,SKC,0.00,18.0,WeatherDisplay:10.37,2013-03-20 00:08:00,
2013-03-19 18:13:00,69.1,67.0,29.81,NE,55,13.8,13.8,93,0.00,CLR,SKC,0.00,7.0,WeatherDisplay:10.37,2013-03-20 00:13:00,
2013-03-19 18:18:00,69.0,67.2,29.81,ENE,68,12.0,12.0,94,0.00,CLR,SKC,0.00,7.0,WeatherDisplay:10.37,2013-03-20 00:18:00,
2013-03-19 18:23:00,68.9,67.1,29.81,East,97,11.5,11.5,94,0.00,CLR,SKC,0.00,7.0,WeatherDisplay:10.37,2013-03-20 00:23:00,
2013-03-19 18:28:00,68.9,67.1,29.80,ENE,63,11.5,11.5,94,0.00,CLR,SKC,0.00,5.0,WeatherDisplay:10.37,2013-03-20 00:28:00,
2013-03-19 18:33:00,68.8,67.0,29.80,ENE,70,12.7,12.7,94,0.00,CLR,SKC,0.00,0.0,WeatherDisplay:10.37,2013-03-20 00:33:00,
2013-03-19 18:38:00,68.8,67.0,29.80,East,90,12.7,12.7,94,0.00,CLR,SKC,0.00,0.0,WeatherDisplay:10.37,2013-03-20 00:38:00,
2013-03-19 18:43:00,68.6,66.8,29.79,ENE,62,12.7,12.7,94,0.00,CLR,SKC,0.00,0.0,WeatherDisplay:10.37,2013-03-20 00:43:00,
2013-03-19 18:48:00,68.7,66.9,29.79,ENE,77,10.0,10.0,94,0.00,CLR,SKC,0.00,0.0,WeatherDisplay:10.37,2013-03-20 00:48:00,
2013-03-19 18:53:00,68.7,67.2,29.79,ENE,74,12.7,12.7,95,0.00,CLR,SKC,0.00,0.0,WeatherDisplay:10.37,2013-03-20 00:53:00,
2013-03-19 18:58:00,68.5,66.7,29.80,East,84,12.7,12.7,94,0.00,CLR,SKC,0.00,0.0,WeatherDisplay:10.37,2013-03-20 00:58:00,
2013-03-19 19:03:00,68.5,66.7,29.80,East,86,13.8,13.8,94,0.00,CLR,SKC,0.00,0.0,WeatherDisplay:10.37,2013-03-20 01:03:00,
2013-03-19 19:08:00,68.5,67.0,29.80,East,96,14.0,14.0,95,0.00,CLR,SKC,0.00,0.0,WeatherDisplay:10.37,2013-03-20 01:08:00,
2013-03-19 19:13:00,68.5,67.0,29.81,East,84,8.1,8.1,95,0.00,CLR,SKC,0.00,0.0,WeatherDisplay:10.37,2013-03-20 01:13:00,
2013-03-19 19:18:00,68.5,67.0,29.81,East,87,11.5,11.5,95,0.00,CLR,SKC,0.00,0.0,WeatherDisplay:10.37,2013-03-20 01:18:00,
2013-03-19 19:23:00,68.5,67.0,29.81,ENE,68,12.0,12.0,95,0.00,CLR,SKC,0.00,0.0,WeatherDisplay:10.37,2013-03-20 01:23:00,
2013-03-19 19:28:00,68.5,67.0,29.81,ENE,68,12.7,12.7,95,0.00,CLR,SKC,0.00,0.0,WeatherDisplay:10.37,2013-03-20 01:28:00,
2013-03-19 19:33:00,68.5,67.0,29.81,ENE,74,11.5,11.5,95,0.00,CLR,SKC,0.00,0.0,WeatherDisplay:10.37,2013-03-20 01:33:00,
2013-03-19 19:38:00,68.5,67.0,29.81,ENE,77,12.0,12.0,95,0.00,CLR,SKC,0.00,0.0,WeatherDisplay:10.37,2013-03-20 01:38:00,
2013-03-19 19:43:00,68.4,66.9,29.82,ENE,71,11.5,11.5,95,0.00,CLR,SKC,0.00,0.0,WeatherDisplay:10.37,2013-03-20 01:43:00,
2013-03-19 19:48:00,68.4,66.9,29.82,East,80,12.0,12.0,95,0.00,CLR,SKC,0.00,0.0,WeatherDisplay:10.37,2013-03-20 01:48:00,
2013-03-19 19:53:00,68.3,66.8,29.82,ENE,71,10.4,10.4,95,0.00,CLR,SKC,0.00,0.0,WeatherDisplay:10.37,2013-03-20 01:53:00,
2013-03-19 19:58:00,68.3,66.8,29.82,East,86,11.0,11.0,95,0.00,CLR,SKC,0.00,0.0,WeatherDisplay:10.37,2013-03-20 01:58:00,
2013-03-19 20:03:00,68.3,66.8,29.82,East,84,9.2,9.2,95,0.00,CLR,SKC,0.00,0.0,WeatherDisplay:10.37,2013-03-20 02:03:00,
2013-03-19 20:08:00,68.2,66.7,29.82,East,96,8.1,8.1,95,0.00,CLR,SKC,0.00,0.0,WeatherDisplay:10.37,2013-03-20 02:08:00,
2013-03-19 20:13:00,68.2,66.7,29.82,East,92,9.2,9.2,95,0.00,CLR,SKC,0.00,0.0,WeatherDisplay:10.37,2013-03-20 02:13:00,
2013-03-19 20:18:00,68.2,66.7,29.82,ENE,65,9.2,9.2,95,0.00,CLR,SKC,0.00,0.0,WeatherDisplay:10.37,2013-03-20 02:18:00,
2013-03-19 20:23:00,68.1,66.6,29.82,SE,125,11.5,11.5,95,0.00,CLR,SKC,0.00,0.0,WeatherDisplay:10.37,2013-03-20 02:23:00,
2013-03-19 20:28:00,68.1,66.6,29.83,East,98,11.5,11.5,95,0.00,CLR,SKC,0.00,0.0,WeatherDisplay:10.37,2013-03-20 02:28:00,
2013-03-19 20:33:00,68.2,66.7,29.83,ENE,69,10.4,10.4,95,0.00,CLR,SKC,0.00,0.0,WeatherDisplay:10.37,2013-03-20 02:33:00,
2013-03-19 20:38:00,68.2,66.7,29.83,East,88,12.0,12.0,95,0.00,CLR,SKC,0.00,0.0,WeatherDisplay:10.37,2013-03-20 02:38:00,
2013-03-19 20:43:00,68.1,66.6,29.83,East,97,11.5,11.5,95,0.00,CLR,SKC,0.00,0.0,WeatherDisplay:10.37,2013-03-20 02:43:00,
2013-03-19 20:48:00,68.0,66.5,29.83,East,92,11.5,11.5,95,0.00,CLR,SKC,0.00,0.0,WeatherDisplay:10.37,2013-03-20 02:48:00,
2013-03-19 20:53:00,68.1,66.6,29.83,ESE,117,10.4,10.4,95,0.00,CLR,SKC,0.00,0.0,WeatherDisplay:10.37,2013-03-20 02:53:00,
2013-03-19 20:58:00,68.2,67.0,29.84,East,91,6.9,6.9,96,0.00,CLR,SKC,0.00,0.0,WeatherDisplay:10.37,2013-03-20 02:58:00,
2013-03-19 21:03:00,68.3,67.1,29.84,ENE,70,10.4,10.4,96,0.00,CLR,SKC,0.00,0.0,WeatherDisplay:10.37,2013-03-20 03:03:00,
2013-03-19 21:08:00,68.3,67.1,29.84,ENE,74,8.1,8.1,96,0.00,CLR,SKC,0.00,0.0,WeatherDisplay:10.37,2013-03-20 03:08:00,
2013-03-19 21:13:00,68.2,67.0,29.84,East,96,11.5,11.5,96,0.00,CLR,SKC,0.00,0.0,WeatherDisplay:10.37,2013-03-20 03:13:00,
2013-03-19 21:18:00,68.2,67.0,29.84,ESE,106,11.5,11.5,96,0.00,CLR,SKC,0.00,0.0,WeatherDisplay:10.37,2013-03-20 03:18:00,
2013-03-19 21:23:00,68.3,67.1,29.84,ENE,62,9.2,9.2,96,0.00,CLR,SKC,0.00,0.0,WeatherDisplay:10.37,2013-03-20 03:23:00,
2013-03-19 21:28:00,68.2,67.0,29.84,East,101,10.4,10.4,96,0.00,CLR,SKC,0.00,0.0,WeatherDisplay:10.37,2013-03-20 03:28:00,
2013-03-19 21:34:00,68.2,67.0,29.84,East,93,11.5,11.5,96,0.00,CLR,SKC,0.00,0.0,WeatherDisplay:10.37,2013-03-20 03:34:00,
2013-03-19 21:39:00,68.2,67.0,29.84,East,94,11.0,11.0,96,0.00,CLR,SKC,0.00,0.0,WeatherDisplay:10.37,2013-03-20 03:39:00,
2013-03-19 21:44:00,68.1,66.6,29.84,East,93,12.0,12.0,95,0.00,CLR,SKC,0.00,0.0,WeatherDisplay:10.37,2013-03-20 03:44:00,
2013-03-19 21:49:00,68.1,66.9,29.84,East,101,9.2,9.2,96,0.00,CLR,SKC,0.00,0.0,WeatherDisplay:10.37,2013-03-20 03:49:00,
2013-03-19 21:54:00,68.1,66.9,29.84,East,96,6.9,6.9,96,0.00,CLR,SKC,0.00,0.0,WeatherDisplay:10.37,2013-03-20 03:54:00,
2013-03-19 21:59:00,68.2,67.0,29.85,East,86,10.4,10.4,96,0.00,CLR,SKC,0.00,0.0,WeatherDisplay:10.37,2013-03-20 03:59:00,
2013-03-19 22:00:00,68.2,67.0,29.85,ESE,120,10.4,10.4,96,0.00,CLR,SKC,0.00,0.0,WeatherDisplay:10.37,2013-03-20 04:00:00,
2013-03-19 22:05:00,68.2,67.0,29.85,East,94,9.2,9.2,96,0.00,OVC,SKC,0.00,0.0,WeatherDisplay:10.37,2013-03-20 04:05:00,
2013-03-19 22:10:00,68.2,67.0,29.85,East,88,7.0,7.0,96,0.00,OVC,SKC,0.00,0.0,WeatherDisplay:10.37,2013-03-20 04:10:00,
2013-03-19 22:15:00,68.2,67.0,29.85,ENE,67,11.5,11.5,96,0.00,OVC,SKC,0.00,0.0,WeatherDisplay:10.37,2013-03-20 04:15:00,
2013-03-19 22:20:00,68.2,67.0,29.85,East,96,11.5,11.5,96,0.00,OVC,SKC,0.00,0.0,WeatherDisplay:10.37,2013-03-20 04:20:00,
2013-03-19 22:25:00,68.2,67.0,29.85,East,87,11.5,11.5,96,0.00,OVC,SKC,0.00,0.0,WeatherDisplay:10.37,2013-03-20 04:25:00,
2013-03-19 22:30:00,68.2,67.0,29.86,East,87,11.5,11.5,96,0.00,OVC,SKC,0.00,0.0,WeatherDisplay:10.37,2013-03-20 04:30:00,
2013-03-19 22:35:00,68.2,67.0,29.86,East,98,6.0,6.0,96,0.00,OVC,SKC,0.00,0.0,WeatherDisplay:10.37,2013-03-20 04:35:00,
2013-03-19 22:40:00,68.2,67.0,29.86,ESE,109,11.5,11.5,96,0.00,OVC,SKC,0.00,0.0,WeatherDisplay:10.37,2013-03-20 04:40:00,
2013-03-19 22:45:00,68.3,67.1,29.86,East,90,10.4,10.4,96,0.00,OVC,SKC,0.00,0.0,WeatherDisplay:10.37,2013-03-20 04:45:00,
2013-03-19 22:50:00,68.3,67.1,29.86,ENE,72,8.1,8.1,96,0.00,OVC,SKC,0.00,0.0,WeatherDisplay:10.37,2013-03-20 04:50:00,
2013-03-19 22:55:00,68.3,67.1,29.86,East,92,10.4,10.4,96,0.00,OVC,SKC,0.00,0.0,WeatherDisplay:10.37,2013-03-20 04:55:00,
2013-03-19 23:00:00,68.4,67.2,29.87,ENE,76,11.5,11.5,96,0.00,OVC,SKC,0.00,0.0,WeatherDisplay:10.37,2013-03-20 05:00:00,
2013-03-19 23:05:00,68.3,67.1,29.87,ENE,78,10.4,10.4,96,0.00,OVC,SKC,0.00,0.0,WeatherDisplay:10.37,2013-03-20 05:05:00,
2013-03-19 23:10:00,68.1,66.9,29.87,East,90,11.5,11.5,96,0.00,OVC,SKC,0.00,0.0,WeatherDisplay:10.37,2013-03-20 05:10:00,
2013-03-19 23:15:00,68.0,66.8,29.87,ENE,71,10.4,10.4,96,0.00,OVC,SKC,0.00,0.0,WeatherDisplay:10.37,2013-03-20 05:15:00,
2013-03-19 23:20:00,68.0,66.8,29.87,ENE,76,11.5,11.5,96,0.00,OVC,SKC,0.00,0.0,WeatherDisplay:10.37,2013-03-20 05:20:00,
2013-03-19 23:25:00,68.0,66.8,29.87,ENE,75,10.4,10.4,96,0.00,OVC,SKC,0.00,0.0,WeatherDisplay:10.37,2013-03-20 05:25:00,
2013-03-19 23:30:00,68.1,66.9,29.87,East,84,10.4,10.4,96,0.00,OVC,SKC,0.00,0.0,WeatherDisplay:10.37,2013-03-20 05:30:00,
2013-03-19 23:35:00,68.1,66.9,29.87,ENE,70,11.5,11.5,96,0.00,OVC,SKC,0.00,0.0,WeatherDisplay:10.37,2013-03-20 05:35:00,
2013-03-19 23:40:00,68.2,67.0,29.87,East,85,11.5,11.5,96,0.00,OVC,SKC,0.00,0.0,WeatherDisplay:10.37,2013-03-20 05:40:00,
2013-03-19 23:45:00,68.1,66.9,29.87,East,87,11.5,11.5,96,0.00,OVC,SKC,0.00,0.0,WeatherDisplay:10.37,2013-03-20 05:45:00,
2013-03-19 23:50:00,68.1,66.9,29.87,ENE,78,11.5,11.5,96,0.00,OVC,SKC,0.00,0.0,WeatherDisplay:10.37,2013-03-20 05:50:00,
2013-03-19 23:55:00,68.1,66.9,29.87,East,85,11.5,11.5,96,0.00,OVC,SKC,0.00,0.0,WeatherDisplay:10.37,2013-03-20 05:55:00,